Regional Weather Roundup
Issued by NWS

Home | Current Version | Previous Version | Text Only | Print | Product List | Glossary Off
Versions: 1 2 3 4 5 6 7 8 9 10 11 12 13 14 15 16 17 18 19 20 21 22 23 24 25 26 27 28 29 30 31 32 33 34 35 36 37 38 39 40 41 42 43 44 45 46 47 48 49 50

000
ASUS43 KDMX 061207
RWRIA

WEATHER ROUNDUP FOR IOWA
NATIONAL WEATHER SERVICE DES MOINES IA
700 AM CDT WED MAY 06 2015

NOTE: "FAIR" INDICATES FEW OR NO CLOUDS BELOW 12,000 FEET WITH NO
SIGNIFICANT WEATHER AND/OR OBSTRUCTIONS TO VISIBILITY.

* - THESE STATIONS ARE NOT NWS STATIONS...THUS NOT UNDER NWS
QUALITY CONTROL.  THEY ALSO DO NOT REPORT WEATHER SUCH
AS PRECIPITATION OR FOG.

IAZ001>003-012>014-020>022-031>034-043>046-061300-
   NORTHWEST IOWA

CITY           SKY/WX    TMP DP  RH WIND       PRES   REMARKS
CARROLL *      FOG       61  61 100 SE13      29.96S VSB 3/4
CHEROKEE *     CLOUDY    62  60  95 SE9       29.94S
DENISON *      CLEAR     61  61 100 SE9       29.92S
LE MARS *      CLOUDY    63  61  94 E8        29.92R
ORANGE CITY *  CLOUDY    61  57  88 SE7       29.92S
SHELDON *      CLOUDY    61  61 100 E14       29.92F FOG
SIOUX CITY     CLOUDY    63  58  83 SE12      29.89S
6HR MIN TEMP:  63; 6HR MAX TEMP:  67; 6HR PCP: TRACE;

SPENCER        CLOUDY    62  61  96 E13       29.97S FOG
6HR MIN TEMP:  61; 6HR MAX TEMP:  63; 6HR PCP:  0.03;

STORM LAKE *   PTCLDY    61  61 100 SE13      29.97R FOG
$$

IAZ055>058-069>071-079>083-090>094-061300-
   SOUTHWEST IOWA

CITY           SKY/WX    TMP DP  RH WIND       PRES   REMARKS
ATLANTIC *     CLEAR     64  59  82 SE10      29.94R
AUDUBON *      CLEAR     59  55  88 SE3       29.97R
CLARINDA *     MOCLDY    64  57  77 SE10      29.94S
COUNCIL BLFS * MOCLDY    63  63 100 SE12      29.90F
CRESTON *      PTCLDY    61  59  94 SE13G18   29.97S
HARLAN  *      CLEAR     63  63 100 SE7G14    29.96S
LAMONI         PTCLDY    66  56  70 SE9G17    29.98S
6HR MIN TEMP:  65; 6HR MAX TEMP:  68;

RED OAK *      MOCLDY    64  59  82 SE10G16   29.92S
SHENANDOAH *   CLOUDY    63  61  94 SE13G18   29.91F FOG
$$

IAZ047>049-059>061-072>074-084-061300-
   CENTRAL IOWA

CITY           SKY/WX    TMP DP  RH WIND       PRES   REMARKS
AMES           CLOUDY    63  60  90 SE10      30.01S FOG
6HR MIN TEMP:  61; 6HR MAX TEMP:  64; 6HR PCP: TRACE;

ANKENY *       CLOUDY    64  61  88 SE8       30.01R
CHARITON *     CLEAR     64  57  77 SE13      30.01S
DES MOINES     CLOUDY    66  57  72 SE12      30.00R
6HR MIN TEMP:  65; 6HR MAX TEMP:  67;

GRINNELL*      FOG       63  61  94 E10       30.06S VSB 3/4
KNOXVILLE *    PTCLDY    64  57  77 SE9       30.02R
MARSHALLTOWN   CLOUDY    62  61  96 SE14      30.04S FOG
6HR MIN TEMP:  60; 6HR MAX TEMP:  63;

PELLA *        MOCLDY    63  62  98 E6        30.05R FOG
PERRY *        MOCLDY    63  61  94 SE12      29.99R FOG
$$

IAZ004>006-015-016-023>025-035-036-061300-
   NORTH CENTRAL IOWA

CITY           SKY/WX    TMP DP  RH WIND       PRES   REMARKS
ALGONA *       FOG       61  61 100 SE14G22   30.01R VSB 1/4
CLARION *      FOG       61  61 100 SE17      30.02S VSB 1/4
ESTHERVILLE    CLOUDY    59  59 100 SE9       29.99R FOG
6HR MIN TEMP:  56; 6HR MAX TEMP:  59; 6HR PCP: TRACE;

FORT DODGE *   CLOUDY    63  59  88 E14G20    30.00S
MASON CITY     FOG       56  56 100 SE10      30.07R VSB 1/4
6HR MIN TEMP:  55; 6HR MAX TEMP:  57;

FOREST CITY *  FOG       55  55 100 SE13      30.04S VSB 1/4
IOWA FALLS *   FOG       61  59  94 E12       30.06R VSB 1/4
$$

IAZ007>011-017>019-026>030-037>042-050>054-066-061300-
   NORTHEAST IOWA

CITY           SKY/WX    TMP DP  RH WIND       PRES   REMARKS
CEDAR RAPIDS   FOG       56  56 100 E9        30.09R VSB 1/2
6HR MIN TEMP:  56; 6HR MAX TEMP:  58;

CHARLES CITY * FOG       55  55 100 SE12      30.09R VSB 0
CLINTON *      CLOUDY    55  54  94 E10       30.15R VSB 1/4
DECORAH *      FOG       54  54 100 VRB7      30.10S VSB 1/4
DUBUQUE        FOG       53  52  96 E6        30.13R VSB 1/4
6HR MIN TEMP:  52; 6HR MAX TEMP:  53;

MONTICELLO *   FOG       55  55 100 SE7       30.12R VSB 1/2
OELWEIN *      FOG       55  55 100 SE15      30.11R VSB 1/4
WATERLOO       FOG       57  57 100 SE12      30.07S VSB 1/4
6HR MIN TEMP:  56; 6HR MAX TEMP:  57;

$$

IAZ064-065-067-068-078-061300-
   EAST CENTRAL IOWA

CITY           SKY/WX    TMP DP  RH WIND       PRES   REMARKS
DAVENPORT      FOG       56  55  97 E10       30.13R VSB 1/2
6HR MIN TEMP:  55; 6HR MAX TEMP:  57;

IOWA CITY      MOSUNNY   57  55  93 E3        30.11R FOG
6HR MIN TEMP:  56; 6HR MAX TEMP:  61;

MT. PLEASANT * PTSUNNY   63  62  94 E8        30.09R FOG
MUSCATINE *    SUNNY     59  57  94 CALM      30.11R FOG
QUAD CITIES    FOG       57  55  93 E9        30.12R VSB 1/4
6HR MIN TEMP:  56; 6HR MAX TEMP:  58;

$$

IAZ062-063-075>077-085>089-095>099-061300-
   SOUTHEAST IOWA

CITY           SKY/WX    TMP DP  RH WIND       PRES   REMARKS
BURLINGTON     MOSUNNY   63  61  93 SE5       30.09R FOG
6HR MIN TEMP:  60; 6HR MAX TEMP:  67;

FAIRFIELD *    PTCLDY    61  61 100 SE7       30.08R FOG
FORT MADISON * MOSUNNY   64  59  82 S7        30.10R
KEOKUK *       MOSUNNY   63  59  88 SE6       30.08S
OSKALOOSA *      N/A     62  59  91 SE10      30.06R FOG
CENTERVILLE *  CLEAR     63  59  88 SE12      30.05S
OTTUMWA        PTCLDY    63  58  83 SE8       30.05R
6HR MIN TEMP:  60; 6HR MAX TEMP:  66;

WASHINGTON *   FOG       61 N/A N/A SE8       30.09R VSB 1/2
$$

ABBREVIATIONS USED IN REMARKS
   TC - TEMPERATURES IN CELSIUS
  WCI - WIND CHILL INDEX
   HX - HEAT INDEX
  VSB - VISIBILITY
$$



USA.gov is the U.S. government's official web portal to all federal, state and local government web resources and services.